When you browse on this site, cookies collect data to enhance your experience and personalize the content and advertising you see.
Visit our Privacy Policy to learn more. By continuing to use the site, you agree to this use of cookies and data.
  • En España
  • Lista de países
  • Para 7 días
  • Temperatura del agua
  • Mapa Satelital
  • El tiempo en el mapa
  • Informadores
  • user-avatar
    Iniciar sesión

    Tiempo cada hora Balchik

    Hoy, 18 Enero, Viernes

    Tiempo Temperatura Precipitaciones Viento Presión Humedad
    00:00 +1°C° 0 mm 3 mps 739 mmHg 79%
    01:00 +2°C° 0 mm 2 mps 738 mmHg 78%
    02:00 +2°C° 0 mm 2 mps 738 mmHg 75%
    03:00 +2°C° 0 mm 2 mps 738 mmHg 73%
    04:00 +2°C° 0 mm 2 mps 738 mmHg 72%
    05:00 +2°C° 0 mm 2 mps 738 mmHg 71%
    06:00 +2°C° 0 mm 2 mps 738 mmHg 71%
    07:00 +3°C° 0 mm 1 mps 738 mmHg 71%
    08:00 +3°C° 0 mm 1 mps 738 mmHg 70%
    09:00 +5°C° 0 mm 1 mps 738 mmHg 66%
    10:00 +6°C° 0 mm 1 mps 738 mmHg 63%
    11:00 +8°C° 0 mm 1 mps 739 mmHg 60%
    12:00 +8°C° 0 mm 1 mps 738 mmHg 59%
    13:00 +9°C° 0 mm 1 mps 738 mmHg 59%
    14:00 +10°C° 0 mm 1 mps 738 mmHg 58%
    15:00 +7°C° 0 mm 2 mps 738 mmHg 64%
    16:00 +6°C° 0 mm 2 mps 738 mmHg 69%
    17:00 +4°C° 0 mm 2 mps 738 mmHg 75%
    18:00 +4°C° 0 mm 2 mps 738 mmHg 75%
    19:00 +3°C° 0 mm 2 mps 738 mmHg 75%
    20:00 +3°C° 0 mm 2 mps 737 mmHg 76%
    21:00 +3°C° 0 mm 2 mps 738 mmHg 75%
    22:00 +3°C° 0 mm 2 mps 738 mmHg 74%
    23:00 +3°C° 0 mm 2 mps 738 mmHg 73%

    Mañana, 19 Enero, Sábado

    Tiempo Temperatura Precipitaciones Viento Presión Humedad
    00:00 +3°C° 0 mm 2 mps 738 mmHg 72%
    01:00 +3°C° 0 mm 2 mps 738 mmHg 71%
    02:00 +3°C° 0 mm 2 mps 739 mmHg 70%
    03:00 +1°C° 0 mm 3 mps 739 mmHg 71%
    04:00 +1°C° 0 mm 3 mps 739 mmHg 73%
    05:00 +1°C° 0 mm 3 mps 739 mmHg 74%
    06:00 0°C° 0 mm 3 mps 740 mmHg 79%
    07:00 -1°C° 0 mm 3 mps 740 mmHg 84%
    08:00 -1°C° 0 mm 3 mps 741 mmHg 89%
    09:00 0°C° 0 mm 3 mps 742 mmHg 87%
    10:00 0°C° 0 mm 4 mps 742 mmHg 85%
    11:00 0°C° 0 mm 4 mps 743 mmHg 83%
    12:00 +1°C° 0 mm 4 mps 743 mmHg 81%
    13:00 +1°C° 0 mm 4 mps 743 mmHg 80%
    14:00 +2°C° 0 mm 3 mps 743 mmHg 79%
    15:00 +2°C° 0 mm 3 mps 743 mmHg 80%
    16:00 +1°C° 0 mm 3 mps 743 mmHg 82%
    17:00 +1°C° 0 mm 3 mps 743 mmHg 84%
    18:00 +1°C° 0 mm 3 mps 743 mmHg 86%
    19:00 +1°C° 0 mm 3 mps 743 mmHg 88%
    20:00 0°C° 0 mm 3 mps 744 mmHg 90%
    21:00 +1°C° 0 mm 3 mps 744 mmHg 90%
    22:00 +1°C° 0 mm 3 mps 744 mmHg 91%
    23:00 +1°C° 0 mm 3 mps 744 mmHg 92%

    Pasado mañana, 20 Enero, Domingo

    Tiempo Temperatura Precipitaciones Viento Presión Humedad
    00:00 +1°C° 0 mm 3 mps 743 mmHg 93%
    01:00 +1°C° 0 mm 3 mps 743 mmHg 93%
    02:00 +1°C° 0 mm 3 mps 743 mmHg 94%
    03:00 +1°C° 0.2 mm 3 mps 743 mmHg 94%
    04:00 +1°C° 0.2 mm 3 mps 742 mmHg 94%
    05:00 +1°C° 0.2 mm 3 mps 742 mmHg 94%
    06:00 +1°C° 0.4 mm 3 mps 742 mmHg 95%
    07:00 +2°C° 0.4 mm 3 mps 742 mmHg 95%
    08:00 +1°C° 0.4 mm 4 mps 742 mmHg 95%
    09:00 +1°C° 0.1 mm 4 mps 742 mmHg 94%
    10:00 +3°C° 0.1 mm 4 mps 742 mmHg 93%
    11:00 +2°C° 0.1 mm 5 mps 741 mmHg 92%
    12:00 +4°C° 0 mm 4 mps 741 mmHg 93%
    13:00 +4°C° 0 mm 4 mps 740 mmHg 93%
    14:00 +5°C° 0 mm 3 mps 740 mmHg 93%
    15:00 +5°C° 0.1 mm 3 mps 739 mmHg 95%
    16:00 +5°C° 0.1 mm 3 mps 739 mmHg 96%
    17:00 +5°C° 0.1 mm 3 mps 739 mmHg 98%
    18:00 +5°C° 0.1 mm 3 mps 739 mmHg 98%
    19:00 +5°C° 0.1 mm 3 mps 738 mmHg 98%
    20:00 +5°C° 0.1 mm 3 mps 738 mmHg 98%
    21:00 +5°C° 0.1 mm 3 mps 738 mmHg 98%
    22:00 +5°C° 0.1 mm 3 mps 738 mmHg 98%
    23:00 +6°C° 0.1 mm 2 mps 738 mmHg 98%

    21 Enero, Lunes

    Tiempo Temperatura Precipitaciones Viento Presión Humedad
    00:00 +6°C° 0.1 mm 2 mps 738 mmHg 97%
    01:00 +4°C° 0.1 mm 3 mps 738 mmHg 97%
    02:00 +4°C° 0.1 mm 3 mps 738 mmHg 97%
    03:00 +3°C° 0 mm 3 mps 738 mmHg 96%
    04:00 +3°C° 0 mm 4 mps 738 mmHg 94%
    05:00 +1°C° 0 mm 4 mps 737 mmHg 92%
    06:00 +1°C° 0.1 mm 5 mps 738 mmHg 91%
    07:00 0°C° 0.1 mm 5 mps 738 mmHg 90%
    08:00 -1°C° 0.1 mm 6 mps 739 mmHg 89%
    09:00 -1°C° 0 mm 6 mps 739 mmHg 87%
    10:00 +1°C° 0 mm 6 mps 740 mmHg 85%
    11:00 +1°C° 0 mm 6 mps 740 mmHg 82%
    12:00 +1°C° 0 mm 6 mps 741 mmHg 81%
    13:00 +1°C° 0 mm 5 mps 741 mmHg 81%
    14:00 +1°C° 0 mm 5 mps 741 mmHg 80%
    15:00 +1°C° 0 mm 5 mps 741 mmHg 80%
    16:00 0°C° 0 mm 4 mps 742 mmHg 79%
    17:00 -1°C° 0 mm 4 mps 742 mmHg 79%
    18:00 -1°C° 0 mm 4 mps 743 mmHg 80%
    19:00 -2°C° 0 mm 4 mps 743 mmHg 80%
    20:00 -3°C° 0 mm 4 mps 744 mmHg 81%
    21:00 -3°C° 0 mm 4 mps 744 mmHg 77%
    22:00 -3°C° 0 mm 4 mps 745 mmHg 73%
    23:00 -3°C° 0 mm 4 mps 745 mmHg 70%

    22 Enero, Martes

    Tiempo Temperatura Precipitaciones Viento Presión Humedad
    00:00 -4°C° 0 mm 3 mps 745 mmHg 72%
    01:00 -4°C° 0 mm 3 mps 745 mmHg 75%
    02:00 -5°C° 0 mm 3 mps 745 mmHg 78%
    03:00 -4°C° 0 mm 2 mps 745 mmHg 80%
    04:00 -4°C° 0 mm 2 mps 745 mmHg 82%
    05:00 -4°C° 0 mm 2 mps 745 mmHg 84%
    06:00 -4°C° 0 mm 2 mps 745 mmHg 85%
    07:00 -3°C° 0 mm 2 mps 745 mmHg 86%
    08:00 -3°C° 0 mm 2 mps 745 mmHg 87%
    09:00 -2°C° 0 mm 2 mps 745 mmHg 83%
    10:00 -1°C° 0 mm 3 mps 745 mmHg 79%
    11:00 0°C° 0 mm 3 mps 744 mmHg 75%
    12:00 +1°C° 0 mm 3 mps 744 mmHg 74%
    13:00 +1°C° 0 mm 3 mps 743 mmHg 73%
    14:00 +1°C° 0 mm 3 mps 742 mmHg 72%
    15:00 +1°C° 0 mm 3 mps 742 mmHg 75%
    16:00 0°C° 0 mm 3 mps 741 mmHg 78%
    17:00 0°C° 0 mm 3 mps 741 mmHg 82%
    18:00 0°C° 0 mm 3 mps 741 mmHg 84%
    19:00 -1°C° 0 mm 4 mps 740 mmHg 86%
    20:00 -2°C° 0 mm 4 mps 740 mmHg 87%
    21:00 -1°C° 0 mm 4 mps 739 mmHg 88%
    22:00 -1°C° 0 mm 4 mps 739 mmHg 89%
    23:00 -1°C° 0 mm 4 mps 738 mmHg 89%

    23 Enero, Miércoles

    Tiempo Temperatura Precipitaciones Viento Presión Humedad
    00:00 -1°C° 0 mm 5 mps 738 mmHg 89%
    01:00 0°C° 0 mm 5 mps 737 mmHg 89%
    02:00 0°C° 0 mm 5 mps 736 mmHg 89%
    03:00 -1°C° 0 mm 6 mps 736 mmHg 90%
    04:00 -1°C° 0 mm 6 mps 735 mmHg 91%
    05:00 +1°C° 0 mm 6 mps 734 mmHg 92%
    06:00 +1°C° 0.1 mm 6 mps 734 mmHg 92%
    07:00 +1°C° 0.1 mm 6 mps 733 mmHg 92%
    08:00 +1°C° 0.1 mm 6 mps 733 mmHg 92%
    09:00 +2°C° 0.1 mm 7 mps 732 mmHg 92%
    10:00 +2°C° 0.1 mm 8 mps 731 mmHg 93%
    11:00 +4°C° 0.1 mm 8 mps 731 mmHg 93%
    12:00 +4°C° 0.6 mm 8 mps 730 mmHg 93%
    13:00 +4°C° 0.6 mm 8 mps 729 mmHg 93%
    14:00 +4°C° 0.6 mm 7 mps 728 mmHg 92%
    15:00 +4°C° 0.1 mm 7 mps 727 mmHg 91%
    16:00 +5°C° 0.1 mm 7 mps 727 mmHg 90%
    17:00 +5°C° 0.1 mm 7 mps 726 mmHg 89%
    18:00 +5°C° 0 mm 7 mps 726 mmHg 87%
    19:00 +5°C° 0 mm 6 mps 726 mmHg 85%
    20:00 +5°C° 0 mm 6 mps 726 mmHg 84%
    21:00 +5°C° 0 mm 7 mps 726 mmHg 84%
    22:00 +4°C° 0 mm 7 mps 726 mmHg 84%
    23:00 +4°C° 0 mm 7 mps 726 mmHg 83%
    Mostrar más